Location: Palo Alto
(37.4420°N, 122.1420°W)
Time: 04:33:17
(UTC-08:00)

Daily predictions for brighter satellites

Satellite Brightness Start Highest point End
(mag) Time Altitude Azimuth Time Altitude Azimuth Time Altitude Azimuth
ATLAS CENTAUR R/B 4.4 03:15:18 41° ENE 03:15:18 41° ENE 03:26:21 10° ESE
Lacrosse 5 3.7 03:49:14 27° ENE 03:49:14 27° ENE 03:51:39 10° NE
ADEOS II 3.7 03:45:33 10° NNE 03:48:14 29° NE 03:48:14 29° NE
USA 234 3.3 03:51:36 10° NE 03:57:37 72° E 03:57:37 72° E
Cosmos 2369 Rocket 3.6 04:07:22 29° N 04:07:22 29° N 04:10:04 10° NNE
GEOS 3 Rocket 3.6 04:26:34 10° SSE 04:31:06 72° SSE 04:31:06 72° SSE
Tiangong 1 3.9 04:39:12 17° ENE 04:39:12 17° ENE 04:40:03 10° ENE
Cosmos 1190 Rocket 3.9 04:37:58 59° NNW 04:39:00 89° WSW 04:44:16 10° SSE
Sich 1 Rocket 3.7 04:35:30 10° N 04:40:02 75° E 04:44:30 10° SSE
Cosmos 1908 Rocket 3.7 04:37:40 10° N 04:42:10 75° E 04:46:37 10° SSE
ATLAS 5 CENTAUR R/B 2.8 04:45:45 35° NNW 04:45:45 35° NNW 04:49:24 10° NNE
Meteor 2-10 Rocket 3.5 04:43:41 14° S 04:47:57 75° E 04:52:59 10° NNE
Okean-O 2.5 04:45:30 10° NNE 04:49:58 88° ESE 04:50:57 54° S
Cosmos 1943 Rocket 2.3 04:51:24 51° WNW 04:51:24 51° WNW 04:56:40 10° NNE
Cosmos 2056 Rocket 4.5 04:55:13 31° NNW 04:55:13 31° NNW 04:58:34 10° N
CZ-4B R/B 4.0 04:49:55 10° N 04:53:55 34° NW 04:53:55 34° NW
Meteor 1-14 Rocket 4.4 04:58:02 10° N 05:03:53 77° E 05:09:32 10° SSE
Cosmos 1954 Rocket 4.2 05:00:42 10° NNW 05:06:02 76° ENE 05:11:21 10° SSE
CZ-4C R/B 2.0 05:03:56 29° SW 05:06:42 86° WNW 05:12:33 10° NNE
Cosmos 1244 Rocket 4.3 05:03:03 10° N 05:09:16 73° W 05:15:23 10° S
Cosmos 1420 Rocket 4.1 05:05:21 10° S 05:10:30 75° ESE 05:15:41 10° NNE
Okean 2 Rocket 3.5 05:06:21 10° N 05:10:43 64° E 05:15:03 10° SSE
NOAA 6 4.0 05:05:46 10° NNE 05:10:57 84° ESE 05:16:06 10° SSW
Cosmos 1703 Rocket 3.8 05:18:40 35° WSW 05:19:46 43° W 05:23:55 10° N
Meteor 1-26 Rocket 4.4 05:17:43 10° SSW 05:23:15 49° WNW 05:28:42 10° N
Thor Agena Rocket 3.6 05:18:33 10° S 05:23:40 56° WSW 05:28:46 10° NNW
SL-08 R/B 4.5 05:18:22 10° N 05:24:44 88° W 05:31:04 10° S
Meteor 1-31 Rocket 3.5 05:22:39 10° N 05:25:51 31° WNW 05:25:51 31° WNW
Lacrosse 5 3.0 05:28:28 24° WNW 05:29:56 27° NW 05:34:16 10° NNE
ADEOS II 3.6 05:26:26 10° NNW 05:29:11 18° NW 05:29:11 18° NW
Delta 2 Rocket 4.4 05:27:00 21° SW 05:30:04 51° SSE 05:35:18 10° E
CZ-4 R/B 4.4 05:29:04 10° NE 05:32:10 20° E 05:35:12 10° SE
S3M 4.0 05:26:44 10° SSW 05:33:03 69° W 05:39:21 10° N
Meteor 1-25 Rocket 4.2 05:27:51 10° N 05:33:43 84° W 05:39:33 10° S
Cosmos 1452 Rocket 4.0 05:31:29 17° SW 05:35:06 38° WNW 05:40:03 10° N
Cosmos 1607 4.4 05:30:33 10° SSW 05:36:32 61° ESE 05:42:36 10° NE
USA 234 4.1 05:35:02 10° NNE 05:40:45 33° NNW 05:44:59 17° W
Cosmos 1553 Rocket 4.0 05:34:52 10° SSW 05:40:54 57° W 05:47:04 10° N
Cosmos 1023 Rocket 4.5 05:38:55 10° NNW 05:44:06 62° WSW 05:49:17 10° S
COSMO-SKYMED 1 2.6 05:41:03 10° S 05:45:18 59° W 05:49:36 10° NNW
Cosmos 2219 3.1 05:40:43 10° NNW 05:46:25 82° WSW 05:52:02 10° SSE
Cosmos 2221 Rocket 4.5 05:44:30 10° SW 05:48:25 28° WNW 05:52:21 10° NNW
Cosmos 1741 Rocket 4.1 05:43:26 10° NNW 05:48:42 85° ENE 05:53:58 10° SSE
Meteor 1-10 Rocket 4.1 05:47:24 10° SSW 05:52:56 76° W 05:58:35 10° N
Cosmos 2227 Rocket 3.9 05:47:55 10° N 05:53:05 35° ENE 05:58:13 10° SE
Cosmos 1656 Rocket 4.4 05:52:40 10° WSW 05:57:43 32° WNW 06:02:48 10° N
Meteor 2-11 Rocket 4.4 05:51:55 10° SSW 05:57:58 69° W 06:04:06 10° N
USA 81 4.1 05:56:05 10° SSW 06:01:13 54° W 06:06:24 10° N
ATLAS 3B R/B 2.9 05:59:00 10° SSW 06:06:37 83° WNW 06:14:00 10° NNE
Okean 1-7 4.5 06:09:39 10° WSW 06:12:27 17° WNW 06:15:15 10° NNW
Tiangong 1 2.1 06:10:43 10° WNW 06:13:18 30° N 06:15:58 10° ENE
Lacrosse 5 rocket 3.3 06:11:17 10° NNW 06:14:01 20° NE 06:16:45 10° E
Cosmos 1709 Rocket 4.0 06:08:10 10° N 06:14:18 88° E 06:20:27 10° S
Cosmos 1140 Rocket 4.2 06:09:43 10° NW 06:14:19 32° W 06:18:53 10° SSW
SMAP 3.8 06:13:25 10° NNE 06:18:02 59° E 06:22:36 10° S
YAOGAN 1 3.8 06:15:50 10° NNE 06:20:02 49° E 06:24:13 10° S
Cosmos 2315 Rocket 4.1 06:16:36 10° SSW 06:22:58 76° W 06:29:20 10° N
